This is the latest recevied weather packets stored in our database for station/object IZ5MMH-1. If no packets are shown the sender has not sent any weather packets the latest 10 day(s).
| Time | Temp. | Humidity | Pressure | Rain* | Wind** | Luminosity | Snow |
|---|---|---|---|---|---|---|---|
| 1787437695 | 20.56° C | 57% | 1017.1 hPa | - | - | - | - |
| 1787437095 | 20° C | 58% | 1017.2 hPa | - | - | - | - |
| 1787436494 | 19.44° C | 59% | 1017.2 hPa | - | - | - | - |
| 1787435895 | 20° C | 57% | 1017.3 hPa | - | - | - | - |
| 1787435295 | 20° C | 57% | 1017.3 hPa | - | - | - | - |
| 1787434696 | 20° C | 54% | 1017.1 hPa | - | - | - | - |
| 1787434094 | 20° C | 55% | 1017.1 hPa | - | - | - | - |
| 1787433495 | 20° C | 56% | 1016.9 hPa | - | - | - | - |
| 1787432896 | 20.56° C | 53% | 1017 hPa | - | - | - | - |
| 1787432294 | 20.56° C | 53% | 1016.9 hPa | - | - | - | - |
| 1787431694 | 20.56° C | 52% | 1016.9 hPa | - | - | - | - |
| 1787431094 | 21.11° C | 52% | 1016.8 hPa | - | - | - | - |
| 1787430495 | 21.11° C | 53% | 1016.8 hPa | - | - | - | - |
| 1787429895 | 21.67° C | 50% | 1016.8 hPa | - | - | - | - |
| 1787429294 | 21.67° C | 50% | 1016.8 hPa | - | - | - | - |
| 1787428696 | 21.67° C | 51% | 1016.7 hPa | - | - | - | - |
| 1787428094 | 22.22° C | 48% | 1016.7 hPa | - | - | - | - |
| 1787427494 | 21.67° C | 47% | 1016.6 hPa | - | - | - | - |
| 1787426894 | 22.22° C | 46% | 1016.4 hPa | - | - | - | - |
| 1787426294 | 22.22° C | 47% | 1016.4 hPa | - | - | - | - |
| 1787425694 | 22.22° C | 46% | 1016.3 hPa | - | - | - | - |
| 1787425094 | 22.78° C | 47% | 1016.2 hPa | - | - | - | - |
| 1787424494 | 23.33° C | 45% | 1016.1 hPa | - | - | - | - |
| 1787423894 | 23.89° C | 44% | 1016.1 hPa | - | - | - | - |
| 1787423294 | 24.44° C | 43% | 1015.9 hPa | - | - | - | - |
* Rain since midnight (hover to see other rain measurements)
** Current wind speed in m/s (hover to see current wind gust speed)